Beaver, WV

4:43 PM EDT on September 28, 2016 (GMT -0400)
Raleigh County Memorial

Weather History for KBKW - February, 2011

Change the Weather History Date:

Monday, February 14, 2011

  Actual Average Record
Temperature  
Mean Temperature 45 °F 34 °F  
Max Temperature 55 °F 43 °F 69 °F (1932)
Min Temperature 35 °F 26 °F -13 °F (1899)
Degree Days  
Heating Degree Days 20 31  
Month to date heating degree days 460 448  
Since 1 July heating degree days 3835 3592  
Cooling Degree Days 0 0  
Month to date cooling degree days 0 0  
Year to date cooling degree days 0 0  
Moisture  
Dew Point 24 °F    
Average Humidity 48    
Maximum Humidity 70    
Minimum Humidity 26    
Precipitation  
Precipitation 0.00 in 0.10 in 0.98 in (1970)
Month to date precipitation 0.40 1.35  
Year to date precipitation 2.29 4.16  
Snow  
Snow 0.00 in - - ()
Month to date snowfall 5.7  
Since 1 September snowfall 83.5  
Snow Depth 0.00 in    
Sea Level Pressure  
Sea Level Pressure 29.99 in    
Wind  
Wind Speed 16 mph (West)    
Max Wind Speed 33 mph    
Max Gust Speed 46 mph    
Visibility 10 miles    
Events      
T = Trace of Precipitation, MM = Missing Value Source: NWS Daily Summary

Daily Weather History Graph

Daily Weather History Graph

Search for Another Location

Airport or City:

Trip Planner

Search our weather history database for the weather conditions in past years. The results will help you decide how hot, cold, wet, or windy it might be!

Date:

Astronomy

Feb. 14, 2011 Rise Set
Actual Time 7:15 AM EST 6:02 PM EST
Civil Twilight 6:48 AM EST 6:29 PM EST
Nautical Twilight 6:17 AM EST 6:59 PM EST
Astronomical Twilight 5:47 AM EST 7:30 PM EST
Moon 2:05 PM EST (2/14) 4:14 AM EST (2/14)
Length of Visible Light 11h 40m
Length of Day
10h 46m
Waxing Gibbous, 83% of the Moon is Illuminated
Feb 14
Waxing Gibbous
Feb 18
Full
Feb 24
Last Quarter
Mar 4
New
Mar 12
First Quarter

Hourly Weather History & Observations

Time (EST) Temp. Windchill Dew Point Humidity Pressure Visibility Wind Dir Wind Speed Gust Speed Precip Events Conditions
12:51 AM 44.1 °F 40.1 °F 23.0 °F 43% 29.95 in 10.0 mi SW 6.9 mph - N/A   Clear
1:51 AM 44.1 °F 37.4 °F 21.9 °F 42% 29.92 in 10.0 mi SW 13.8 mph 19.6 mph N/A   Clear
2:51 AM 44.1 °F 39.0 °F 21.9 °F 42% 29.91 in 10.0 mi SW 9.2 mph 18.4 mph N/A   Clear
3:51 AM 43.0 °F 36.0 °F 21.9 °F 43% 29.88 in 10.0 mi SW 13.8 mph - N/A   Clear
4:51 AM 43.0 °F 36.8 °F 21.0 °F 42% 29.88 in 10.0 mi WSW 11.5 mph 18.4 mph N/A   Clear
5:51 AM 42.1 °F 36.6 °F 21.0 °F 43% 29.87 in 10.0 mi WSW 9.2 mph 18.4 mph N/A   Clear
6:51 AM 42.1 °F 35.7 °F 21.0 °F 43% 29.86 in 10.0 mi WSW 11.5 mph 19.6 mph N/A   Clear
7:51 AM 42.1 °F 36.1 °F 21.0 °F 43% 29.87 in 10.0 mi SW 10.4 mph 18.4 mph N/A   Clear
8:51 AM 45.0 °F 38.9 °F 21.9 °F 40% 29.85 in 10.0 mi WSW 12.7 mph 19.6 mph N/A   Clear
9:51 AM 48.0 °F - 23.0 °F 37% 29.86 in 10.0 mi West 17.3 mph 26.5 mph N/A   Clear
10:51 AM 52.0 °F - 24.1 °F 34% 29.83 in 10.0 mi West 16.1 mph 29.9 mph N/A   Clear
11:51 AM 53.1 °F - 21.0 °F 29% 29.85 in 10.0 mi West 25.3 mph 38.0 mph N/A   Clear
12:51 PM 54.0 °F - 19.9 °F 26% 29.82 in 10.0 mi WNW 21.9 mph 35.7 mph N/A   Clear
1:51 PM 55.0 °F - 21.9 °F 28% 29.82 in 10.0 mi WNW 20.7 mph 34.5 mph N/A   Partly Cloudy
2:51 PM 53.1 °F - 25.0 °F 34% 29.86 in 10.0 mi NW 28.8 mph 38.0 mph N/A   Partly Cloudy
3:51 PM 46.0 °F 36.9 °F 28.9 °F 51% 29.96 in 10.0 mi NW 28.8 mph 38.0 mph N/A   Mostly Cloudy
4:51 PM 42.1 °F 33.3 °F 26.1 °F 53% 30.03 in 10.0 mi WNW 19.6 mph 32.2 mph N/A   Overcast
5:51 PM 39.9 °F 30.5 °F 26.1 °F 58% 30.07 in 10.0 mi NW 19.6 mph 24.2 mph N/A   Overcast
6:51 PM 39.0 °F 30.3 °F 27.0 °F 62% 30.12 in 10.0 mi WNW 16.1 mph 23.0 mph N/A   Overcast
7:33 PM 39.2 °F 31.6 °F 28.4 °F 65% 30.11 in 10.0 mi NW 12.7 mph 23.0 mph N/A   Overcast
7:51 PM 37.9 °F 29.6 °F 28.0 °F 68% 30.17 in 10.0 mi NW 13.8 mph 25.3 mph N/A   Overcast
8:01 PM 37.4 °F 29.3 °F 26.6 °F 65% 30.12 in 10.0 mi NW 12.7 mph 23.0 mph N/A   Overcast
8:17 PM 37.4 °F 28.2 °F 26.6 °F 65% 30.13 in 10.0 mi NW 16.1 mph 32.2 mph N/A   Overcast
8:41 PM 37.4 °F 27.5 °F 26.6 °F 65% 30.14 in 10.0 mi NW 18.4 mph 27.6 mph N/A   Overcast
8:51 PM 37.9 °F 29.6 °F 27.0 °F 65% 30.18 in 10.0 mi NW 13.8 mph 20.7 mph N/A   Overcast
9:51 PM 37.0 °F 28.9 °F 26.1 °F 65% 30.20 in 10.0 mi NW 12.7 mph 23.0 mph N/A   Overcast
10:51 PM 36.0 °F 28.5 °F 26.1 °F 67% 30.22 in 10.0 mi NW 10.4 mph - N/A   Overcast
11:51 PM 36.0 °F 28.0 °F 26.1 °F 67% 30.22 in 10.0 mi NNW 11.5 mph - N/A   Mostly Cloudy